Location: Poughquag
(41.6090°N, 73.6820°W)
Time: 07:55:35
(UTC-05:00)

DIWATA 2B (PO-101) - Pass Details

Date: 20 November 2025
Orbit: 563 x 574 km, 98.1° (Epoch: 07 December)

Event Time Altitude Azimuth Distance (km) Brightness Sun altitude
Rises 05:22:18 0° 173° (S) 2,757 ? -16.3°
Reaches altitude 10° 05:24:27 10° 177° (S) 1,863 ? -15.9°
Maximum altitude 05:28:26 62° 258° (WSW) 641 ? -15.2°
Drops below altitude 10° 05:32:28 10° 340° (NNW) 1,871 ? -14.4°
Enters shadow 05:33:09 - 342° (NNW) 2,154 ? -14.3°
